This demonstration page uses our WeatherBlox Daily Observations layout. Learn more.

Left ArrowRight Arrow

39.08367, -84.50855

Hourly Observations for August 23, 2019

Temp ( °F °C ) Dew Point ( °F °C ) Humidity (%) Winds ( mph kmh ) Pressure ( in mb ) Visibility ( mi km ) Precip ( " mm )
12:53 am 00:53 Cloudy 72 22.2 71 21.7 97 97 N 3 6 29.99 1016 10 16 0.01 0.25
1:42 am 01:42 Cloudy 73 22.8 71 21.7 94 94 NNE 5 7 29.98 1015 10 16 N/A
1:53 am 01:53 Cloudy 73 22.8 71 21.7 94 94 N 7 11 29.99 1016 10 16 N/A
2:06 am 02:06 Cloudy 73 22.8 70 21.1 90 90 NNE 7 11 29.99 1016 10 16 N/A
2:20 am 02:20 Cloudy with Light Rain 73 22.8 70 21.1 90 90 NE 6 9 29.99 1016 10 16 0.00 0.00
2:53 am 02:53 Cloudy with Light Rain 72 22.2 70 21.1 94 94 NE 8 13 29.99 1016 7 11 0.00 0.00
3:00 am 03:00 Cloudy with Light Rain 72 22.2 70 21.1 94 94 NE 6 9 29.98 1015 8 13 0.01 0.25
3:53 am 03:53 Cloudy with Light Rain 70 21.1 69 20.6 97 97 N 10 17 30.00 1016 5 8 0.05 1.27
4:04 am 04:04 Cloudy with Heavy Rain 70 21.1 69 20.6 97 97 NNE 10 17 30.00 1016 2 3 0.06 1.52
4:12 am 04:12 Cloudy with Rain 70 21.1 68 20 93 93 NNE 10 17 30.01 1016 3 4 0.09 2.29
4:21 am 04:21 Cloudy with Rain 70 21.1 69 20.6 97 97 NNE 8 13 30.01 1016 3 5 0.11 2.79
4:53 am 04:53 Cloudy with Light Rain 69 20.6 68 20 96 96 NE 8 13 30.01 1016 8 13 0.12 3.05
5:07 am 05:07 Cloudy with Light Rain 69 20.6 67 19.4 93 93 NNE 10 17 30.02 1017 10 16 0.00 0.00
5:21 am 05:21 Cloudy with Light Rain 68 20 67 19.4 96 96 NE 8 13 30.02 1017 7 11 0.01 0.25
5:34 am 05:34 Cloudy with Light Rain 68 20 65 18.3 90 90 NE 12 19 30.02 1017 10 16 0.01 0.25
5:53 am 05:53 Cloudy with Light Rain 67 19.4 65 18.3 93 93 NNE 9 15 30.03 1017 10 16 0.01 0.25
6:53 am 06:53 Cloudy 66 18.9 64 17.8 93 93 NNE 7 11 30.05 1018 10 16 0.00 0.00
7:10 am 07:10 Cloudy 66 18.9 64 17.8 93 93 NNE 6 9 30.05 1018 10 16 N/A
7:53 am 07:53 Cloudy 66 18.9 64 17.8 93 93 NE 7 11 30.08 1019 10 16 N/A
8:01 am 08:01 Cloudy 66 18.9 64 17.8 93 93 NE 7 11 30.08 1019 10 16 N/A
8:53 am 08:53 Mostly Cloudy 66 18.9 62 16.7 87 87 NE 8 13 30.09 1019 10 16 N/A
9:53 am 09:53 Cloudy 68 20 63 17.2 84 84 NE 7 11 30.10 1019 10 16 N/A
10:02 am 10:02 Cloudy 68 20 63 17.2 84 84 NE 9 15 30.11 1020 10 16 N/A
10:28 am 10:28 Mostly Cloudy 69 20.6 62 16.7 78 78 ENE 8 13 30.12 1020 10 16 N/A
10:53 am 10:53 Mostly Cloudy 70 21.1 61 16.1 73 73 ENE 13 20 30.12 1020 10 16 N/A
11:53 am 11:53 Mostly Cloudy 71 21.7 61 16.1 71 71 E 10 17 30.13 1020 10 16 N/A
12:53 pm 12:53 Partly Cloudy 74 23.3 61 16.1 64 64 ENE 8 13 30.12 1020 10 16 N/A
1:53 pm 13:53 Partly Cloudy 74 23.3 61 16.1 64 64 ENE 9 15 30.12 1020 10 16 N/A
2:53 pm 14:53 Partly Cloudy 74 23.3 60 15.6 62 62 NE 8 13 30.11 1020 10 16 N/A
3:53 pm 15:53 Partly Cloudy 74 23.3 59 15 60 60 E 6 9 30.11 1020 10 16 N/A
4:53 pm 16:53 Partly Cloudy 75 23.9 57 13.9 54 54 NE 8 13 30.10 1019 10 16 N/A
5:53 pm 17:53 Partly Cloudy 75 23.9 59 15 58 58 NE 8 13 30.10 1019 10 16 N/A
6:53 pm 18:53 Mostly Sunny 74 23.3 59 15 60 60 NE 8 13 30.10 1019 10 16 N/A
7:53 pm 19:53 Sunny 70 21.1 57 13.9 64 64 ENE 6 9 30.11 1020 10 16 N/A
8:53 pm 20:53 Clear 64 17.8 60 15.6 87 87 N N/A 30.13 1020 10 16 N/A
9:53 pm 21:53 Clear 61 16.1 59 15 93 93 ENE 3 6 30.14 1021 10 16 N/A
10:53 pm 22:53 Clear 60 15.6 59 15 96 96 N N/A 30.16 1021 10 16 N/A
11:53 pm 23:53 Clear with Mist and Fog 59 15 58 14.4 96 96 N N/A 30.17 1022 5 8 N/A

Powered by AerisWeather